Home > Weather > Cruz Bay > Past weeks

Flag for US Virgin Islands Past Weather in Cruz Bay, US Virgin Islands — Yesterday and Last 2 Weeks

Now
85 °F

Sunny.


Feels Like: 92 °F
Forecast: 81 / 85 °F
Wind: 10 mph from East

Location: Cyril E. King International Airport

Current Time: May 25, 2016 at 9:06:08 AM

Latest Report: May 25, 2016 at 7:53 AM


Visibility: 10 mi

Pressure: 30.09 "Hg

Humidity: 70%

Dew Point: 74 °F

Location of Cruz BayLocation

Past Weather in Cruz Bay — Graph

°F

Cruz Bay Temperature Yesterday

Maximum temperature yesterday: 89 °F (at 12:53 PM)
Minimum temperature yesterday: 82 °F (at 10:53 PM)
Average temperature yesterday: 85 °F

High & Low Weather Summary for the Past Weeks

 TemperatureHumidityPressure
High89 °F (May 17, 3:00 PM)90% (May 13, 1:41 AM)30.12 "Hg (May 13, 1:41 AM)
Low78 °F (May 11, 2:53 AM)59% (May 15, 12:53 PM)29.97 "Hg (May 22, 3:00 PM)
Average84 °F73%30.04 "Hg
* Reported May 10 6:53 AM — May 25 6:53 AM, Cruz Bay, Weather by CustomWeather, © 2016

Note: Actual official high and low records may vary slightly from our data, if they occured in-between our weather recording intervals... More about our weather records

Advertising

Cruz Bay Weather History for the Previous 24 Hours

Scroll right to see more
 ConditionsComfort  
Time TempWeatherWind HumidityBarometerVisibility
6:53 AM
Wed, May 25
82 °FSunny.7 mph77%30.09 "Hg10 mi
5:53 AM79 °FSunny.8 mph84%30.08 "Hg10 mi
4:53 AM80 °FClear.8 mph81%30.06 "Hg10 mi
3:53 AM82 °FPassing clouds.8 mph77%30.07 "Hg10 mi
2:53 AM82 °FPassing clouds.12 mph77%30.07 "Hg10 mi
1:53 AM81 °FClear.7 mph77%30.07 "Hg10 mi
12:53 AM82 °FClear.8 mph77%30.09 "Hg10 mi
11:53 PM
Tue, May 24
82 °FClear.10 mph79%30.11 "Hg10 mi
10:53 PM82 °FClear.7 mph79%30.12 "Hg10 mi
9:53 PM83 °FClear.10 mph77%30.11 "Hg10 mi
8:53 PM83 °FClear.12 mph74%30.11 "Hg10 mi
7:53 PM84 °FPassing clouds.10 mph74%30.09 "Hg10 mi
6:53 PM84 °FPassing clouds.10 mph72%30.08 "Hg10 mi
6:26 PM85 °FPassing clouds.10 mph75%30.07 "Hg10 mi
5:53 PM85 °FMostly cloudy.13 mph75%30.06 "Hg10 mi
5:29 PM85 °FMostly cloudy.12 mph75%30.06 "Hg10 mi
5:00 PM86 °FMostly cloudy.10 mph75%30.05 "Hg10 mi
3:53 PM87 °FScattered clouds.12 mph69%30.06 "Hg10 mi
2:53 PM87 °FScattered clouds.12 mph69%30.08 "Hg10 mi
1:53 PM88 °FPassing clouds.9 mph67%30.08 "Hg10 mi
12:53 PM89 °FPassing clouds.12 mph65%30.10 "Hg10 mi
12:22 PM88 °FPassing clouds.13 mph67%30.11 "Hg10 mi
11:53 AM88 °FPassing clouds.12 mph65%30.11 "Hg10 mi
11:00 AM88 °FLow clouds.13 mph70%30.11 "Hg10 mi
10:25 AM87 °FLow clouds.13 mph69%30.12 "Hg10 mi
9:53 AM87 °FMostly cloudy.17 mph69%30.12 "Hg10 mi
9:12 AM87 °FMostly cloudy.15 mph72%30.12 "Hg10 mi
9:00 AM87 °FMostly cloudy.15 mph72%30.11 "Hg10 mi
Weather by CustomWeather, © 2016

See weather overviewHow to use our weather pages